sat.trackr.live / text

‹ back to catalog

STARLINK-11107 [DTC]

NORAD 59708 · 2024-088A

PAYLOAD ACTIVE UNKNOWN

§ Identity

Operator
Country
US
Launch date
2024-05-10
Launch site
AFWTR
Launch vehicle
Mass (kg)
RCS (m²)

Purposes: comms

External: N2YO · Heavens-Above · Gunter

§ Orbital elements

Epoch: 2026-09-21T18:32:47.480928Z

Period
91.74 min
Inclination
53.1582°
Eccentricity
0.0000950
Mean motion
15.69707302 rev/d
Perigee alt
359.1 km
Apogee alt
360.4 km
Semi-major
6,737.9 km
B*
8.4078e-6
RAAN
79.3448°
Arg perigee
105.0483°
Mean anomaly
255.0640°
Rev number
13,705

§ Raw data

STARLINK-11107 [DTC]1 59708U 24088A   26264.77277177  .00000430  00000+0  84078-5 0  99942 59708  53.1582  79.3448 0000950 105.0483 255.0640 15.69707302137053

JSON: /api/v1/satellites/59708 · /tle

For live sub-satellite position, see the globe view (requires WebGL).

§ Visibility from observer

Set your observer location to see the next 7 days of passes ≥ 10°. The values pass through the URL so the page stays shareable.

No JS? Fill the form by hand. The geolocation button needs JavaScript.